Location: Caltech
(34.1382°N, 118.1253°W)
Time: 15:11:54
(UTC-07:00)

Courier 1B - Visible Passes

Search period start: 31 October 2014 00:00
Search period end: 09 November 2014 23:00
Orbit: 963 x 1209 km, 28.3° (Epoch: 30 October)

Date Brightness Start Highest point End Pass type
(mag) Time Alt. Az. Time Alt. Az. Time Alt. Az.
31 Oct 9.8 05:47:24 10° SSW 05:51:45 18° SSE 05:56:16 10° ESE visible
01 Nov 9.9 04:55:30 10° S 04:58:15 13° SSE 05:01:03 10° SE visible
01 Nov 9.2 06:45:26 10° SW 06:51:29 34° SSE 06:57:52 10° E visible
02 Nov 9.3 04:52:22 10° SSW 04:57:53 28° SSE 05:03:40 10° ESE visible
03 Nov 9.4 04:00:53 14° SSW 04:04:21 21° SSE 04:09:20 10° ESE visible
04 Nov 9.6 03:10:58 16° SSE 03:10:58 16° SSE 03:14:41 10° ESE visible
04 Nov 8.7 04:58:04 10° SW 05:04:07 38° SSE 05:10:30 10° E visible
05 Nov 8.8 04:07:54 24° SSW 04:10:33 31° SSE 04:16:27 10° E visible
06 Nov 9.1 03:17:51 25° SE 03:17:51 25° SE 03:22:19 10° ESE visible
06 Nov 8.3 05:04:46 13° WSW 05:10:28 47° S 05:17:05 10° E visible
07 Nov 10.1 02:27:44 11° ESE 02:27:44 11° ESE 02:28:01 10° ESE visible
07 Nov 8.3 04:14:39 32° SSW 04:16:51 42° SSE 04:23:10 10° E visible
08 Nov 8.7 03:24:29 33° SE 03:24:29 33° SE 03:29:14 10° E visible
08 Nov 8.1 05:11:24 14° WSW 05:16:53 53° S 05:23:33 10° ESE visible
09 Nov 10.0 02:34:17 14° ESE 02:34:17 14° ESE 02:35:17 10° ESE visible
09 Nov 8.0 04:21:11 37° SW 04:23:15 50° S 04:29:43 10° E visible
